Location: Cahas Mountain Overlook
(37.0833°N, 80.1000°W)
Time: 21:53:41
(UTC-04:00)

Explorer 7 - Visible Passes

Search period start: 15 June 2024 00:00
Search period end: 25 June 2024 00:00
Orbit: 466 x 623 km, 50.3° (Epoch: 15 June)

Date Brightness Start Highest point End Pass type
(mag) Time Alt. Az. Time Alt. Az. Time Alt. Az.
15 Jun 8.1 21:51:02 10° WNW 21:54:09 27° SW 21:56:41 14° S visible
16 Jun 8.6 21:44:02 10° W 21:46:42 19° SW 21:49:25 10° S visible
17 Jun 9.0 21:37:18 10° W 21:39:13 14° SW 21:41:08 10° SSW visible
